Track FLOCK 4S 9 now! 10-day predictions FLOCK 4S 9 is classified as:
1 47478U 21006BT 22136.33598108 .00011735 00000-0 62342-3 0 9997 2 47478 97.4410 195.5977 0008955 56.5162 303.6925 15.15423529 72387